| time (UTC) | temp F | wind direction | speed MPH | gust MPH | rain 1hr in | rain 24hr in | rain mn in | humidity % | barometer mb |
| 20260503204601 | 50 | 27 | 2.0 | 13.0 | 0.00 | 0.00 | 0.00 | 46 | 1008.1 |
| 20260503204102 | 50 | 50 | 5.0 | 13.0 | 0.00 | 0.00 | 0.00 | 46 | 1008.1 |
| 20260503203600 | 50 | 24 | 0.0 | 11.0 | 0.00 | 0.00 | 0.00 | 48 | 1008.1 |
| 20260503203104 | 49 | 311 | 2.0 | 11.0 | 0.00 | 0.00 | 0.00 | 49 | 1008.3 |
| 20260503202600 | 50 | 331 | 3.0 | 11.0 | 0.00 | 0.00 | 0.00 | 45 | 1008.4 |
| 20260503202100 | 50 | 30 | 2.0 | 11.0 | 0.00 | 0.00 | 0.00 | 47 | 1008.2 |
| 20260503201600 | 49 | 25 | 3.0 | 9.0 | 0.00 | 0.00 | 0.00 | 45 | 1008.4 |
| 20260503201100 | 49 | 193 | 2.0 | 9.0 | 0.00 | 0.00 | 0.00 | 48 | 1008.4 |
| 20260503200604 | 49 | 178 | 1.0 | 7.0 | 0.00 | 0.00 | 0.00 | 48 | 1008.3 |
| 20260503200105 | 49 | 79 | 0.0 | 5.0 | 0.00 | 0.00 | 0.00 | 47 | 1008.3 |
| 20260503195559 | 49 | 226 | 1.0 | 6.0 | 0.00 | 0.00 | 0.00 | 46 | 1008.5 |
| 20260503195059 | 49 | 0 | 0.0 | 8.0 | 0.00 | 0.00 | 0.00 | 46 | 1008.6 |
| 20260503194600 | 49 | 44 | 2.0 | 8.0 | 0.00 | 0.00 | 0.00 | 47 | 1008.6 |
| 20260503194103 | 49 | 340 | 2.0 | 11.0 | 0.00 | 0.00 | 0.00 | 46 | 1008.6 |
| 20260503193558 | 49 | 11 | 5.0 | 11.0 | 0.00 | 0.00 | 0.00 | 46 | 1008.8 |
| 20260503193112 | 49 | 68 | 2.0 | 11.0 | 0.00 | 0.00 | 0.00 | 46 | 1008.8 |
| 20260503192558 | 49 | 304 | 3.0 | 11.0 | 0.00 | 0.00 | 0.00 | 47 | 1008.8 |
| 20260503192100 | 49 | 60 | 3.0 | 12.0 | 0.00 | 0.00 | 0.00 | 46 | 1008.8 |
| 20260503191609 | 49 | 32 | 1.0 | 12.0 | 0.00 | 0.00 | 0.00 | 51 | 1008.8 |
| 20260503191057 | 49 | 354 | 4.0 | 13.0 | 0.00 | 0.00 | 0.00 | 46 | 1008.9 |
| 20260503190601 | 49 | 338 | 3.0 | 13.0 | 0.00 | 0.00 | 0.00 | 44 | 1008.8 |
| 20260503190101 | 49 | 132 | 2.0 | 12.0 | 0.00 | 0.00 | 0.00 | 49 | 1008.8 |
| 20260503185600 | 49 | 338 | 1.0 | 12.0 | 0.00 | 0.00 | 0.00 | 48 | 1008.8 |
| 20260503185102 | 49 | 75 | 5.0 | 14.0 | 0.00 | 0.00 | 0.00 | 45 | 1008.8 |
| 20260503184611 | 49 | 0 | 4.0 | 14.0 | 0.00 | 0.00 | 0.00 | 48 | 1008.8 |
| 20260503184100 | 48 | 73 | 1.0 | 8.0 | 0.00 | 0.00 | 0.00 | 48 | 1009.1 |
| 20260503183557 | 48 | 18 | 1.0 | 9.0 | 0.00 | 0.00 | 0.00 | 49 | 1009.0 |
| 20260503183110 | 48 | 347 | 1.0 | 9.0 | 0.00 | 0.00 | 0.00 | 49 | 1009.1 |
| 20260503182603 | 48 | 20 | 1.0 | 7.0 | 0.00 | 0.00 | 0.00 | 49 | 1009.1 |
| 20260503182059 | 48 | 356 | 3.0 | 8.0 | 0.00 | 0.00 | 0.00 | 47 | 1009.1 |
| 20260503181609 | 48 | 71 | 1.0 | 11.0 | 0.00 | 0.00 | 0.00 | 49 | 1009.1 |
| 20260503181058 | 48 | 331 | 3.0 | 11.0 | 0.00 | 0.00 | 0.00 | 47 | 1009.1 |
| 20260503180559 | 48 | 5 | 2.0 | 10.0 | 0.00 | 0.00 | 0.00 | 47 | 1009.1 |
| 20260503180057 | 48 | 0 | 4.0 | 10.0 | 0.00 | 0.00 | 0.00 | 48 | 1009.1 |
| 20260503175601 | 48 | 54 | 4.0 | 11.0 | 0.00 | 0.02 | 0.00 | 46 | 1009.1 |
| 20260503175101 | 48 | 254 | 4.0 | 11.0 | 0.00 | 0.02 | 0.00 | 48 | 1009.2 |
| 20260503174600 | 48 | 58 | 1.0 | 10.0 | 0.00 | 0.02 | 0.00 | 49 | 1009.1 |
| 20260503174100 | 47 | 219 | 3.0 | 10.0 | 0.00 | 0.02 | 0.00 | 48 | 1009.0 |
| 20260503173600 | 47 | 0 | 2.0 | 13.0 | 0.00 | 0.02 | 0.00 | 46 | 1009.2 |
| 20260503173102 | 47 | 0 | 3.0 | 13.0 | 0.00 | 0.02 | 0.00 | 47 | 1009.1 |
| 20260503172600 | 48 | 53 | 5.0 | 13.0 | 0.00 | 0.02 | 0.00 | 50 | 1009.1 |
| 20260503172059 | 48 | 356 | 2.0 | 9.0 | 0.00 | 0.02 | 0.00 | 50 | 1009.2 |
| 20260503171600 | 48 | 224 | 1.0 | 5.0 | 0.00 | 0.02 | 0.00 | 50 | 1009.1 |
| 20260503171100 | 47 | 69 | 0.0 | 5.0 | 0.00 | 0.02 | 0.00 | 52 | 1009.0 |
| 20260503170600 | 47 | 0 | 1.0 | 5.0 | 0.00 | 0.02 | 0.00 | 53 | 1009.0 |
| 20260503150600 | 47 | 21 | 4.0 | 11.0 | 0.00 | 0.05 | 0.00 | 53 | 1009.2 |
| 20260503131103 | 44 | 76 | 5.0 | 11.0 | 0.00 | 0.06 | 0.00 | 73 | 1010.0 |
| 20260503130559 | 44 | 40 | 4.0 | 9.0 | 0.00 | 0.06 | 0.00 | 74 | 1010.0 |
| 20260503110559 | 38 | 0 | 0.0 | 0.0 | 0.00 | 0.18 | 0.00 | 96 | 1010.2 |
| 20260503090105 | 37 | 0 | 0.0 | 1.0 | 0.00 | 0.23 | 0.00 | 96 | 1010.2 |
| 20260503081629 | 37 | 0 | 0.0 | 3.0 | 0.00 | 0.26 | 0.00 | 95 | 1010.7 |
| 20260503081100 | 37 | 0 | 0.0 | 1.0 | 0.00 | 0.26 | 0.00 | 96 | 1010.6 |
| 20260503080600 | 37 | 0 | 0.0 | 1.0 | 0.00 | 0.26 | 0.00 | 96 | 1010.7 |
| 20260503080117 | 37 | 0 | 0.0 | 1.0 | 0.00 | 0.26 | 0.00 | 95 | 1010.7 |
| 20260503072559 | 37 | 0 | 0.0 | 0.0 | 0.00 | 0.28 | 0.00 | 96 | 1010.8 |
| 20260503072059 | 37 | 0 | 0.0 | 1.0 | 0.00 | 0.28 | 0.00 | 96 | 1010.7 |
| 20260503071930 | 37 | 0 | 0.0 | 1.0 | 0.00 | 0.28 | 0.00 | 96 | 1010.7 |
| 20260503071059 | 37 | 0 | 0.0 | 1.0 | 0.00 | 0.28 | 0.00 | 96 | 1010.7 |
| 20260503070602 | 37 | 0 | 0.0 | 0.0 | 0.00 | 0.28 | 0.00 | 96 | 1010.9 |
| 20260503070107 | 37 | 0 | 0.0 | 0.0 | 0.00 | 0.28 | 0.00 | 95 | 1010.9 |
| 20260503060104 | 37 | 0 | 0.0 | 1.0 | 0.00 | 0.30 | 0.00 | 95 | 1011.2 |
| 20260503055059 | 37 | 0 | 0.0 | 1.0 | 0.00 | 0.32 | 0.00 | 95 | 1011.4 |
| 20260503054605 | 37 | 0 | 0.0 | 1.0 | 0.00 | 0.32 | 0.00 | 95 | 1011.4 |
| 20260503054104 | 37 | 0 | 0.0 | 0.0 | 0.00 | 0.32 | 0.00 | 95 | 1011.4 |
| 20260503053600 | 37 | 0 | 0.0 | 0.0 | 0.00 | 0.32 | 0.00 | 95 | 1011.5 |
| 20260503053105 | 37 | 0 | 0.0 | 0.0 | 0.00 | 0.32 | 0.00 | 95 | 1011.6 |
| 20260503052603 | 37 | 0 | 0.0 | 0.0 | 0.00 | 0.32 | 0.00 | 95 | 1011.5 |
| 20260503052059 | 36 | 0 | 0.0 | 0.0 | 0.00 | 0.32 | 0.00 | 95 | 1011.5 |
| 20260503051558 | 36 | 0 | 0.0 | 0.0 | 0.00 | 0.32 | 0.00 | 95 | 1011.6 |
| 20260503051058 | 37 | 0 | 0.0 | 0.0 | 0.00 | 0.32 | 0.00 | 95 | 1011.6 |
| 20260503050559 | 36 | 0 | 0.0 | 1.0 | 0.00 | 0.32 | 0.00 | 95 | 1011.6 |
| 20260503050105 | 36 | 0 | 0.0 | 1.0 | 0.00 | 0.32 | 0.00 | 95 | 1011.7 |
| 20260503045559 | 36 | 325 | 0.0 | 1.0 | 0.00 | 0.33 | 0.00 | 95 | 1011.8 |
| 20260503045058 | 36 | 0 | 0.0 | 1.0 | 0.00 | 0.33 | 0.00 | 95 | 1011.7 |
| 20260503044614 | 37 | 0 | 0.0 | 2.0 | 0.00 | 0.33 | 0.00 | 95 | 1011.8 |
| 20260503044059 | 37 | 0 | 0.0 | 2.0 | 0.00 | 0.33 | 0.00 | 95 | 1011.9 |
| 20260503043600 | 37 | 0 | 0.0 | 1.0 | 0.00 | 0.33 | 0.00 | 95 | 1011.9 |
| 20260503043102 | 37 | 0 | 0.0 | 2.0 | 0.00 | 0.33 | 0.00 | 95 | 1011.9 |
| 20260503042600 | 37 | 0 | 0.0 | 2.0 | 0.00 | 0.33 | 0.00 | 95 | 1012.0 |
| 20260503042100 | 37 | 354 | 0.0 | 1.0 | 0.00 | 0.33 | 0.00 | 95 | 1012.0 |
| 20260503041608 | 37 | 0 | 0.0 | 0.0 | 0.00 | 0.33 | 0.00 | 95 | 1012.0 |
| 20260503041059 | 37 | 0 | 0.0 | 0.0 | 0.00 | 0.33 | 0.00 | 94 | 1012.0 |
| 20260503040600 | 37 | 0 | 0.0 | 0.0 | 0.00 | 0.33 | 0.00 | 94 | 1012.2 |
| 20260503035559 | 37 | 0 | 0.0 | 0.0 | 0.00 | 0.33 | 0.33 | 94 | 1012.2 |
| 20260503035059 | 37 | 0 | 0.0 | 0.0 | 0.00 | 0.33 | 0.33 | 94 | 1012.4 |
| 20260503034603 | 37 | 0 | 0.0 | 0.0 | 0.00 | 0.33 | 0.33 | 94 | 1012.3 |
| 20260503034102 | 36 | 0 | 0.0 | 0.0 | 0.00 | 0.33 | 0.33 | 94 | 1012.4 |
| 20260503033559 | 36 | 0 | 0.0 | 0.0 | 0.00 | 0.33 | 0.33 | 94 | 1012.4 |
| 20260503033140 | 36 | 0 | 0.0 | 0.0 | 0.00 | 0.33 | 0.33 | 94 | 1012.4 |
| 20260503032600 | 36 | 0 | 0.0 | 0.0 | 0.00 | 0.33 | 0.33 | 94 | 1012.2 |
| 20260503032100 | 36 | 0 | 0.0 | 0.0 | 0.00 | 0.33 | 0.33 | 94 | 1012.3 |
| 20260503031602 | 36 | 0 | 0.0 | 1.0 | 0.00 | 0.33 | 0.33 | 94 | 1012.3 |
| 20260503031100 | 36 | 0 | 0.0 | 1.0 | 0.00 | 0.33 | 0.33 | 93 | 1012.4 |
| 20260503030603 | 36 | 0 | 0.0 | 2.0 | 0.00 | 0.33 | 0.33 | 93 | 1012.4 |
| 20260503030110 | 36 | 0 | 0.0 | 3.0 | 0.00 | 0.33 | 0.33 | 93 | 1012.3 |
| 20260503025559 | 37 | 0 | 0.0 | 3.0 | 0.00 | 0.33 | 0.33 | 93 | 1012.4 |
| 20260503025101 | 37 | 312 | 1.0 | 3.0 | 0.00 | 0.33 | 0.33 | 93 | 1012.3 |
| 20260503024624 | 37 | 303 | 1.0 | 2.0 | 0.00 | 0.33 | 0.33 | 93 | 1012.3 |
| 20260503024103 | 37 | 323 | 0.0 | 2.0 | 0.00 | 0.33 | 0.33 | 93 | 1012.4 |
| 20260503023603 | 38 | 0 | 0.0 | 0.0 | 0.00 | 0.33 | 0.33 | 92 | 1012.3 |
| 20260503023111 | 38 | 0 | 0.0 | 0.0 | 0.00 | 0.33 | 0.33 | 93 | 1012.5 |
| 20260503022601 | 38 | 0 | 0.0 | 0.0 | 0.00 | 0.33 | 0.33 | 92 | 1012.5 |
| 20260503022104 | 38 | 0 | 0.0 | 0.0 | 0.00 | 0.33 | 0.33 | 92 | 1012.6 |
| 20260503021605 | 38 | 0 | 0.0 | 2.0 | 0.00 | 0.33 | 0.33 | 92 | 1012.6 |
| 20260503021100 | 39 | 0 | 0.0 | 2.0 | 0.00 | 0.33 | 0.33 | 92 | 1012.6 |
| 20260503020559 | 39 | 304 | 0.0 | 2.0 | 0.00 | 0.33 | 0.33 | 91 | 1012.6 |
| 20260503020101 | 39 | 309 | 1.0 | 2.0 | 0.00 | 0.33 | 0.33 | 91 | 1012.8 |
| 20260503015559 | 39 | 0 | 0.0 | 2.0 | 0.00 | 0.33 | 0.33 | 91 | 1012.7 |
| 20260503015101 | 40 | 309 | 1.0 | 2.0 | 0.00 | 0.33 | 0.33 | 91 | 1012.8 |
| 20260503014605 | 40 | 323 | 0.0 | 3.0 | 0.00 | 0.33 | 0.33 | 91 | 1012.7 |
| 20260503014101 | 40 | 304 | 1.0 | 3.0 | 0.00 | 0.33 | 0.33 | 90 | 1012.7 |
| 20260503013558 | 40 | 0 | 0.0 | 3.0 | 0.00 | 0.33 | 0.33 | 90 | 1012.7 |
| 20260503013102 | 40 | 0 | 0.0 | 3.0 | 0.00 | 0.33 | 0.33 | 90 | 1012.7 |
| 20260503012600 | 41 | 307 | 2.0 | 3.0 | 0.00 | 0.33 | 0.33 | 89 | 1012.7 |
| 20260503012100 | 41 | 300 | 1.0 | 2.0 | 0.00 | 0.33 | 0.33 | 89 | 1012.7 |
| 20260503011605 | 41 | 298 | 1.0 | 2.0 | 0.00 | 0.33 | 0.33 | 88 | 1012.7 |
| 20260503011100 | 41 | 297 | 1.0 | 2.0 | 0.00 | 0.33 | 0.33 | 88 | 1012.7 |
| 20260503010559 | 42 | 302 | 0.0 | 2.0 | 0.00 | 0.33 | 0.33 | 87 | 1012.7 |
| 20260503005559 | 43 | 0 | 0.0 | 1.0 | 0.00 | 0.33 | 0.33 | 87 | 1012.6 |
| 20260503005059 | 43 | 0 | 0.0 | 2.0 | 0.00 | 0.33 | 0.33 | 87 | 1012.5 |
| 20260503004559 | 43 | 0 | 0.0 | 2.0 | 0.00 | 0.33 | 0.33 | 87 | 1012.4 |
| 20260503004102 | 43 | 294 | 0.0 | 2.0 | 0.00 | 0.33 | 0.33 | 87 | 1012.4 |
| 20260503003558 | 43 | 0 | 0.0 | 3.0 | 0.00 | 0.33 | 0.33 | 87 | 1012.3 |
| 20260503003101 | 43 | 313 | 0.0 | 3.0 | 0.00 | 0.33 | 0.33 | 87 | 1012.4 |
| 20260503002601 | 43 | 23 | 0.0 | 3.0 | 0.00 | 0.33 | 0.33 | 86 | 1012.4 |
| 20260503002101 | 43 | 0 | 0.0 | 4.0 | 0.00 | 0.33 | 0.33 | 86 | 1012.3 |
| 20260503001620 | 43 | 349 | 0.0 | 6.0 | 0.00 | 0.33 | 0.33 | 85 | 1012.2 |
| 20260503001104 | 44 | 2 | 1.0 | 6.0 | 0.00 | 0.33 | 0.33 | 86 | 1012.1 |
| 20260503000558 | 44 | 323 | 1.0 | 5.0 | 0.00 | 0.33 | 0.33 | 85 | 1012.0 |
| 20260503000121 | 44 | 5 | 1.0 | 5.0 | 0.00 | 0.33 | 0.33 | 85 | 1012.1 |
| 20260502235558 | 44 | 0 | 1.0 | 9.0 | 0.00 | 0.33 | 0.33 | 86 | 1011.9 |
| 20260502235059 | 45 | 349 | 1.0 | 9.0 | 0.00 | 0.33 | 0.33 | 85 | 1011.9 |
| 20260502234617 | 45 | 43 | 1.0 | 7.0 | 0.00 | 0.33 | 0.33 | 85 | 1011.8 |
| 20260502234059 | 45 | 28 | 2.0 | 8.0 | 0.00 | 0.33 | 0.33 | 83 | 1011.7 |
| 20260502233602 | 45 | 52 | 4.0 | 8.0 | 0.00 | 0.33 | 0.33 | 82 | 1011.6 |
| 20260502233111 | 45 | 60 | 0.0 | 4.0 | 0.00 | 0.33 | 0.33 | 83 | 1011.7 |
| 20260502232558 | 46 | 0 | 0.0 | 7.0 | 0.00 | 0.33 | 0.33 | 81 | 1011.6 |
| 20260502232058 | 45 | 2 | 2.0 | 7.0 | 0.00 | 0.33 | 0.33 | 81 | 1011.5 |
| 20260502231613 | 46 | 328 | 0.0 | 7.0 | 0.00 | 0.33 | 0.33 | 82 | 1011.6 |
| 20260502231058 | 46 | 0 | 1.0 | 7.0 | 0.00 | 0.33 | 0.33 | 81 | 1011.4 |
| 20260502230559 | 46 | 0 | 0.0 | 4.0 | 0.00 | 0.33 | 0.33 | 78 | 1011.3 |
| 20260502225558 | 47 | 315 | 0.0 | 6.0 | 0.00 | 0.33 | 0.33 | 79 | 1011.3 |
| 20260502225058 | 47 | 23 | 2.0 | 7.0 | 0.00 | 0.33 | 0.33 | 75 | 1011.3 |
| 20260502224559 | 47 | 7 | 1.0 | 10.0 | 0.00 | 0.33 | 0.33 | 75 | 1011.1 |
| 20260502224058 | 47 | 348 | 2.0 | 11.0 | 0.00 | 0.33 | 0.33 | 74 | 1010.9 |
| 20260502223559 | 48 | 24 | 3.0 | 13.0 | 0.00 | 0.33 | 0.33 | 74 | 1010.9 |
| 20260502223059 | 48 | 5 | 3.0 | 13.0 | 0.00 | 0.33 | 0.33 | 74 | 1010.7 |
| 20260502222601 | 48 | 349 | 3.0 | 13.0 | 0.00 | 0.33 | 0.33 | 75 | 1010.8 |
| 20260502222058 | 48 | 23 | 3.0 | 8.0 | 0.00 | 0.33 | 0.33 | 76 | 1010.6 |
| 20260502221605 | 47 | 0 | 3.0 | 8.0 | 0.00 | 0.33 | 0.33 | 75 | 1010.4 |
| 20260502221101 | 47 | 309 | 1.0 | 3.0 | 0.00 | 0.33 | 0.33 | 79 | 1010.2 |
| 20260502220559 | 48 | 317 | 1.0 | 3.0 | 0.00 | 0.33 | 0.33 | 78 | 1010.1 |
| 20260502220106 | 48 | 319 | 2.0 | 3.0 | 0.00 | 0.33 | 0.33 | 76 | 1010.0 |
| 20260502215602 | 49 | 0 | 0.0 | 6.0 | 0.00 | 0.33 | 0.33 | 78 | 1010.1 |
| 20260502215101 | 50 | 0 | 0.0 | 6.0 | 0.00 | 0.33 | 0.33 | 70 | 1010.1 |
| 20260502214607 | 49 | 178 | 1.0 | 6.0 | 0.00 | 0.33 | 0.33 | 78 | 1010.1 |
| 20260502214059 | 49 | 2 | 2.0 | 6.0 | 0.00 | 0.33 | 0.33 | 78 | 1010.1 |
| 20260502213602 | 48 | 316 | 1.0 | 3.0 | 0.00 | 0.33 | 0.33 | 82 | 1010.1 |
| 20260502213101 | 49 | 0 | 0.0 | 3.0 | 0.00 | 0.33 | 0.33 | 82 | 1010.1 |
| 20260502212601 | 48 | 61 | 0.0 | 3.0 | 0.00 | 0.33 | 0.33 | 83 | 1010.1 |
| 20260502212059 | 48 | 303 | 0.0 | 6.0 | 0.00 | 0.33 | 0.33 | 85 | 1010.0 |
| 20260502211607 | 48 | 0 | 2.0 | 6.0 | 0.00 | 0.33 | 0.33 | 87 | 1010.1 |
| 20260502211059 | 48 | 9 | 2.0 | 4.0 | 0.00 | 0.33 | 0.33 | 87 | 1010.1 |
| 20260502210557 | 49 | 0 | 0.0 | 3.0 | 0.00 | 0.33 | 0.33 | 87 | 1010.1 |
| 20260502210109 | 49 | 271 | 0.0 | 3.0 | 0.00 | 0.33 | 0.33 | 87 | 1010.0 |
| 20260502205601 | 48 | 250 | 0.0 | 2.0 | 0.00 | 0.33 | 0.33 | 88 | 1009.9 |
| 20260502205058 | 49 | 248 | 1.0 | 3.0 | 0.00 | 0.33 | 0.33 | 88 | 1009.9 |